Tracking 21092 objects as of 14-Aug-2020
HD Live streaming from Space Station
objects crossing your sky now
Track the most recent launched group of Starlink satellites

ARIANE 5 DEB (SYLDA)

Track ARIANE 5 DEB (SYLDA) now!


NORAD ID: 44478
Int'l Code: 2019-049D
Perigee: 250.5 km
Apogee: 30,989.9 km
Inclination: 4.5 °
Period: 540.9 minutes
Semi major axis: 21991 km
RCS: Unknown
Launch date: August 6, 2019
Source: France (FR)
Launch site: FRENCH GUIANA (FRGUI)

Note: This is SATELLITE DEBRIS
aabbcc
Your satellite tracking list
Your tracking list is empty




NASA's NSSDC Master Catalog

Two Line Element Set (TLE):
1 44478U 19049D   20226.67056332  .00007105  00000-0  13524-2 0  9994
2 44478   4.4619 275.0272 6989033 147.9798 286.0930  2.66213395  9151
Source of the keplerian elements: AFSPC